| time (UTC) | temp F | wind direction | speed MPH | gust MPH | rain 1hr in | rain 24hr in | rain mn in | humidity % | barometer mb |
| 20260506164936 | 54 | 307 | 4.0 | 10.0 | 0.00 | 0.85 | 0.85 | 60 | 1012.4 |
| 20260506164433 | 53 | 347 | 13.0 | 15.0 | 0.00 | 0.85 | 0.85 | 61 | 1012.3 |
| 20260506163925 | 53 | 339 | 3.0 | 14.0 | 0.00 | 0.85 | 0.85 | 63 | 1012.1 |
| 20260506163420 | 53 | 313 | 1.0 | 5.0 | 0.00 | 0.85 | 0.85 | 62 | 1012.1 |
| 20260506162915 | 53 | 346 | 5.0 | 8.0 | 0.00 | 0.85 | 0.85 | 61 | 1011.9 |
| 20260506162413 | 53 | 334 | 11.0 | 16.0 | 0.00 | 0.85 | 0.85 | 59 | 1012.0 |
| 20260506161910 | 53 | 337 | 6.0 | 8.0 | 0.00 | 0.85 | 0.85 | 64 | 1011.9 |
| 20260506161408 | 53 | 273 | 4.0 | 10.0 | 0.00 | 0.85 | 0.85 | 67 | 1012.1 |
| 20260506160905 | 53 | 37 | 7.0 | 11.0 | 0.00 | 0.85 | 0.85 | 61 | 1012.1 |
| 20260506160402 | 52 | 332 | 2.0 | 5.0 | 0.00 | 0.85 | 0.85 | 66 | 1012.1 |
| 20260506155900 | 52 | 353 | 4.0 | 14.0 | 0.00 | 0.85 | 0.85 | 67 | 1012.1 |
| 20260506155356 | 52 | 331 | 3.0 | 7.0 | 0.00 | 0.85 | 0.85 | 64 | 1012.0 |
| 20260506153514 | 52 | 347 | 11.0 | 12.0 | 0.00 | 0.85 | 0.85 | 67 | 1011.7 |
| 20260506153011 | 52 | 354 | 7.0 | 11.0 | 0.00 | 0.85 | 0.85 | 68 | 1011.8 |
| 20260506152508 | 50 | 7 | 4.0 | 5.0 | 0.00 | 0.85 | 0.85 | 74 | 1011.6 |
| 20260506152006 | 50 | 348 | 9.0 | 11.0 | 0.00 | 0.85 | 0.85 | 72 | 1011.6 |
| 20260506151503 | 50 | 321 | 3.0 | 7.0 | 0.00 | 0.85 | 0.85 | 77 | 1011.6 |
| 20260506151001 | 50 | 276 | 3.0 | 7.0 | 0.00 | 0.85 | 0.85 | 79 | 1011.4 |
| 20260506150456 | 49 | 339 | 9.0 | 11.0 | 0.00 | 0.85 | 0.85 | 79 | 1011.3 |
| 20260506145954 | 49 | 357 | 6.0 | 10.0 | 0.00 | 0.85 | 0.85 | 79 | 1011.4 |
| 20260506145450 | 49 | 5 | 9.0 | 10.0 | 0.00 | 0.85 | 0.85 | 82 | 1011.2 |
| 20260506144948 | 49 | 357 | 7.0 | 12.0 | 0.00 | 0.85 | 0.85 | 80 | 1011.0 |
| 20260506144444 | 49 | 316 | 3.0 | 5.0 | 0.00 | 0.85 | 0.85 | 84 | 1011.0 |
| 20260506143942 | 49 | 353 | 7.0 | 8.0 | 0.00 | 0.85 | 0.85 | 84 | 1011.2 |
| 20260506143439 | 48 | 49 | 3.0 | 5.0 | 0.00 | 0.85 | 0.85 | 86 | 1011.0 |
| 20260506142938 | 48 | 345 | 1.0 | 4.0 | 0.00 | 0.85 | 0.85 | 87 | 1011.3 |
| 20260506142435 | 48 | 22 | 4.0 | 8.0 | 0.00 | 0.85 | 0.85 | 86 | 1010.9 |
| 20260506141933 | 48 | 344 | 8.0 | 10.0 | 0.00 | 0.85 | 0.85 | 86 | 1010.9 |
| 20260506141430 | 48 | 338 | 4.0 | 8.0 | 0.00 | 0.85 | 0.85 | 87 | 1011.0 |
| 20260506140929 | 48 | 9 | 4.0 | 4.0 | 0.00 | 0.85 | 0.85 | 90 | 1011.0 |
| 20260506140425 | 48 | 324 | 2.0 | 3.0 | 0.00 | 0.85 | 0.85 | 90 | 1011.1 |
| 20260506135922 | 48 | 279 | 2.0 | 4.0 | 0.00 | 0.85 | 0.85 | 90 | 1011.3 |
| 20260506135420 | 47 | 5 | 3.0 | 8.0 | 0.00 | 0.85 | 0.85 | 91 | 1010.8 |
| 20260506134915 | 47 | 0 | 5.0 | 8.0 | 0.00 | 0.85 | 0.85 | 91 | 1010.7 |
| 20260506134412 | 47 | 337 | 3.0 | 4.0 | 0.00 | 0.85 | 0.85 | 92 | 1010.7 |
| 20260506133909 | 47 | 349 | 3.0 | 10.0 | 0.00 | 0.85 | 0.85 | 91 | 1010.9 |
| 20260506133406 | 47 | 306 | 1.0 | 1.0 | 0.00 | 0.85 | 0.85 | 93 | 1010.5 |
| 20260506132902 | 47 | 329 | 5.0 | 7.0 | 0.00 | 0.85 | 0.85 | 92 | 1010.3 |
| 20260506132359 | 47 | 321 | 3.0 | 8.0 | 0.00 | 0.85 | 0.85 | 93 | 1010.6 |
| 20260506131858 | 47 | 332 | 4.0 | 5.0 | 0.00 | 0.85 | 0.85 | 93 | 1010.5 |
| 20260506131353 | 47 | 344 | 2.0 | 4.0 | 0.00 | 0.85 | 0.85 | 92 | 1010.3 |
| 20260506130851 | 46 | 13 | 6.0 | 8.0 | 0.00 | 0.85 | 0.85 | 92 | 1010.5 |
| 20260506130347 | 46 | 33 | 6.0 | 10.0 | 0.00 | 0.85 | 0.85 | 93 | 1010.3 |
| 20260506125845 | 47 | 339 | 4.0 | 5.0 | 0.00 | 0.85 | 0.85 | 95 | 1010.1 |
| 20260506125343 | 46 | 349 | 1.0 | 1.0 | 0.00 | 0.85 | 0.85 | 95 | 1010.2 |
| 20260506124841 | 46 | 330 | 2.0 | 7.0 | 0.00 | 0.85 | 0.85 | 95 | 1010.0 |
| 20260506124338 | 46 | 330 | 2.0 | 7.0 | 0.00 | 0.85 | 0.85 | 95 | 1010.0 |
| 20260506123836 | 46 | 3 | 7.0 | 8.0 | 0.00 | 0.85 | 0.85 | 95 | 1009.9 |
| 20260506123334 | 46 | 264 | 2.0 | 5.0 | 0.00 | 0.85 | 0.85 | 96 | 1009.8 |
| 20260506122831 | 46 | 325 | 5.0 | 5.0 | 0.00 | 0.85 | 0.85 | 96 | 1009.9 |
| 20260506122327 | 46 | 356 | 5.0 | 7.0 | 0.00 | 0.85 | 0.85 | 96 | 1009.8 |
| 20260506121826 | 46 | 337 | 3.0 | 4.0 | 0.00 | 0.85 | 0.85 | 96 | 1009.7 |
| 20260506121322 | 46 | 356 | 3.0 | 3.0 | 0.00 | 0.85 | 0.85 | 96 | 1009.6 |
| 20260506120820 | 46 | 13 | 4.0 | 4.0 | 0.00 | 0.85 | 0.85 | 96 | 1009.7 |
| 20260506120317 | 46 | 337 | 4.0 | 5.0 | 0.00 | 0.85 | 0.85 | 96 | 1010.1 |
| 20260506115814 | 46 | 347 | 2.0 | 4.0 | 0.00 | 0.85 | 0.85 | 96 | 1010.0 |
| 20260506115313 | 46 | 4 | 2.0 | 4.0 | 0.00 | 0.85 | 0.85 | 96 | 1009.8 |
| 20260506114810 | 46 | 351 | 1.0 | 3.0 | 0.00 | 0.85 | 0.85 | 96 | 1009.7 |
| 20260506114308 | 46 | 352 | 3.0 | 3.0 | 0.00 | 0.85 | 0.85 | 96 | 1009.5 |
| 20260506113806 | 46 | 355 | 0.0 | 0.0 | 0.00 | 0.85 | 0.85 | 96 | 1009.3 |
| 20260506113303 | 46 | 356 | 3.0 | 3.0 | 0.00 | 0.85 | 0.85 | 96 | 1009.3 |
| 20260506112800 | 46 | 7 | 0.0 | 3.0 | 0.00 | 0.85 | 0.85 | 96 | 1009.4 |
| 20260506112257 | 46 | 23 | 0.0 | 1.0 | 0.00 | 0.85 | 0.85 | 96 | 1009.4 |
| 20260506111754 | 46 | 356 | 0.0 | 4.0 | 0.00 | 0.85 | 0.85 | 96 | 1009.6 |
| 20260506111252 | 46 | 353 | 2.0 | 3.0 | 0.00 | 0.85 | 0.85 | 96 | 1009.9 |
| 20260506110750 | 45 | 12 | 0.0 | 3.0 | 0.00 | 0.85 | 0.85 | 96 | 1009.2 |
| 20260506110247 | 45 | 348 | 1.0 | 3.0 | 0.00 | 0.85 | 0.85 | 96 | 1009.7 |
| 20260506105743 | 45 | 342 | 1.0 | 3.0 | 0.00 | 0.85 | 0.85 | 96 | 1009.1 |
| 20260506105240 | 45 | 354 | 1.0 | 3.0 | 0.00 | 0.85 | 0.85 | 96 | 1008.9 |
| 20260506104738 | 45 | 351 | 3.0 | 3.0 | 0.00 | 0.85 | 0.85 | 96 | 1008.5 |
| 20260506104235 | 45 | 0 | 3.0 | 4.0 | 0.00 | 0.85 | 0.85 | 96 | 1008.1 |
| 20260506103732 | 45 | 18 | 1.0 | 1.0 | 0.00 | 0.85 | 0.85 | 96 | 1008.3 |
| 20260506103229 | 45 | 3 | 1.0 | 3.0 | 0.00 | 0.85 | 0.85 | 96 | 1008.3 |
| 20260506102727 | 45 | 2 | 3.0 | 3.0 | 0.05 | 0.85 | 0.85 | 96 | 1008.3 |
| 20260506102225 | 45 | 40 | 1.0 | 3.0 | 0.05 | 0.85 | 0.85 | 96 | 1007.9 |
| 20260506101722 | 45 | 32 | 3.0 | 4.0 | 0.00 | 0.84 | 0.84 | 96 | 1008.1 |
| 20260506101218 | 45 | 31 | 1.0 | 3.0 | 0.07 | 0.84 | 0.84 | 95 | 1008.3 |
| 20260506100716 | 45 | 33 | 3.0 | 4.0 | 0.12 | 0.84 | 0.84 | 95 | 1008.5 |
| 20260506100214 | 45 | 31 | 4.0 | 4.0 | 0.12 | 0.83 | 0.83 | 95 | 1008.7 |
| 20260506095712 | 45 | 312 | 0.0 | 3.0 | 0.12 | 0.82 | 0.82 | 95 | 1009.1 |
| 20260506095209 | 45 | 350 | 7.0 | 8.0 | 0.05 | 0.81 | 0.81 | 95 | 1009.0 |
| 20260506094706 | 45 | 5 | 1.0 | 5.0 | 0.12 | 0.80 | 0.80 | 95 | 1008.8 |
| 20260506094204 | 45 | 358 | 5.0 | 7.0 | 0.12 | 0.79 | 0.79 | 95 | 1009.1 |
| 20260506093703 | 45 | 350 | 3.0 | 5.0 | 0.19 | 0.78 | 0.78 | 95 | 1008.8 |
| 20260506093159 | 45 | 20 | 3.0 | 5.0 | 0.12 | 0.77 | 0.77 | 95 | 1008.8 |
| 20260506092657 | 45 | 353 | 1.0 | 4.0 | 0.12 | 0.76 | 0.76 | 95 | 1009.1 |
| 20260506092154 | 45 | 357 | 6.0 | 7.0 | 0.07 | 0.75 | 0.75 | 95 | 1008.9 |
| 20260506091652 | 45 | 336 | 3.0 | 4.0 | 0.05 | 0.74 | 0.74 | 95 | 1008.8 |
| 20260506091149 | 45 | 330 | 5.0 | 12.0 | 0.05 | 0.74 | 0.74 | 95 | 1008.6 |
| 20260506090647 | 45 | 351 | 1.0 | 4.0 | 0.07 | 0.73 | 0.73 | 95 | 1008.6 |
| 20260506090143 | 45 | 12 | 5.0 | 10.0 | 0.12 | 0.73 | 0.73 | 95 | 1008.3 |
| 20260506085640 | 45 | 11 | 6.0 | 8.0 | 0.05 | 0.72 | 0.72 | 95 | 1008.5 |
| 20260506085136 | 45 | 8 | 3.0 | 5.0 | 0.07 | 0.71 | 0.71 | 95 | 1008.6 |
| 20260506084633 | 45 | 353 | 5.0 | 8.0 | 0.07 | 0.71 | 0.71 | 95 | 1008.6 |
| 20260506084130 | 45 | 23 | 5.0 | 8.0 | 0.05 | 0.70 | 0.70 | 95 | 1008.6 |
| 20260506083627 | 45 | 42 | 7.0 | 11.0 | 0.24 | 0.70 | 0.70 | 95 | 1008.7 |
| 20260506083125 | 45 | 344 | 4.0 | 12.0 | 0.24 | 0.69 | 0.69 | 95 | 1008.9 |
| 20260506082621 | 46 | 25 | 4.0 | 8.0 | 0.19 | 0.66 | 0.66 | 95 | 1008.5 |
| 20260506082116 | 46 | 328 | 3.0 | 8.0 | 0.19 | 0.64 | 0.64 | 95 | 1008.3 |
| 20260506081615 | 46 | 5 | 6.0 | 5.0 | 0.24 | 0.63 | 0.63 | 96 | 1008.6 |
| 20260506081112 | 47 | 28 | 4.0 | 8.0 | 0.19 | 0.60 | 0.60 | 96 | 1008.3 |
| 20260506080610 | 47 | 333 | 8.0 | 8.0 | 0.24 | 0.59 | 0.59 | 96 | 1008.2 |
| 20260506080106 | 47 | 334 | 3.0 | 7.0 | 0.24 | 0.57 | 0.57 | 96 | 1008.4 |
| 20260506073050 | 47 | 348 | 5.0 | 11.0 | 0.17 | 0.46 | 0.46 | 96 | 1008.0 |
| 20260506072547 | 47 | 346 | 3.0 | 5.0 | 0.12 | 0.44 | 0.44 | 96 | 1008.0 |
| 20260506072045 | 47 | 12 | 3.0 | 7.0 | 0.12 | 0.43 | 0.43 | 96 | 1007.8 |
| 20260506071542 | 47 | 0 | 4.0 | 8.0 | 0.12 | 0.42 | 0.42 | 96 | 1007.9 |
| 20260506071040 | 47 | 4 | 4.0 | 5.0 | 0.19 | 0.41 | 0.41 | 96 | 1007.8 |
| 20260506070537 | 47 | 349 | 4.0 | 5.0 | 0.24 | 0.40 | 0.40 | 96 | 1007.9 |
| 20260506062514 | 48 | 342 | 6.0 | 7.0 | 0.26 | 0.28 | 0.28 | 95 | 1008.1 |
| 20260506062011 | 48 | 351 | 3.0 | 3.0 | 0.12 | 0.25 | 0.25 | 95 | 1008.4 |
| 20260506061506 | 48 | 351 | 5.0 | 5.0 | 0.12 | 0.24 | 0.24 | 95 | 1008.2 |
| 20260506061005 | 48 | 22 | 3.0 | 5.0 | 0.07 | 0.23 | 0.23 | 95 | 1008.2 |
| 20260506060503 | 48 | 346 | 3.0 | 5.0 | 0.12 | 0.22 | 0.22 | 95 | 1008.5 |
| 20260506050931 | 49 | 10 | 5.0 | 5.0 | 0.07 | 0.12 | 0.12 | 95 | 1009.1 |
| 20260506050429 | 49 | 23 | 2.0 | 5.0 | 0.00 | 0.11 | 0.11 | 95 | 1009.2 |
| 20260506044919 | 49 | 19 | 3.0 | 5.0 | 0.12 | 0.10 | 0.10 | 95 | 1009.2 |
| 20260506044418 | 49 | 21 | 3.0 | 4.0 | 0.05 | 0.09 | 0.09 | 95 | 1009.1 |
| 20260506043914 | 49 | 347 | 3.0 | 5.0 | 0.07 | 0.08 | 0.08 | 95 | 1009.2 |
| 20260506043412 | 49 | 328 | 5.0 | 7.0 | 0.05 | 0.07 | 0.07 | 95 | 1009.3 |
| 20260506042909 | 49 | 3 | 4.0 | 5.0 | 0.12 | 0.07 | 0.07 | 95 | 1009.3 |
| 20260506042409 | 49 | 16 | 1.0 | 3.0 | 0.12 | 0.06 | 0.06 | 95 | 1009.3 |
| 20260506041906 | 49 | 340 | 3.0 | 4.0 | 0.17 | 0.05 | 0.05 | 95 | 1009.3 |
| 20260506041403 | 49 | 11 | 4.0 | 5.0 | 0.19 | 0.04 | 0.04 | 95 | 1009.2 |
| 20260506040900 | 49 | 357 | 0.0 | 3.0 | 0.14 | 0.02 | 0.02 | 95 | 1009.3 |
| 20260506040358 | 49 | 7 | 5.0 | 7.0 | 0.12 | 0.00 | 0.00 | 95 | 1009.4 |
| 20260506035854 | 49 | 355 | 4.0 | 4.0 | 0.12 | 0.78 | 0.78 | 95 | 1009.2 |
| 20260506035351 | 49 | 340 | 5.0 | 7.0 | 0.05 | 0.76 | 0.76 | 95 | 1009.6 |
| 20260506034849 | 49 | 353 | 3.0 | 3.0 | 0.05 | 0.76 | 0.76 | 95 | 1009.5 |
| 20260506034346 | 49 | 30 | 5.0 | 7.0 | 0.07 | 0.75 | 0.75 | 94 | 1009.6 |
| 20260506033842 | 49 | 357 | 2.0 | 4.0 | 0.05 | 0.74 | 0.74 | 94 | 1009.7 |
| 20260506033339 | 49 | 16 | 4.0 | 8.0 | 0.12 | 0.74 | 0.74 | 94 | 1009.5 |
| 20260506032837 | 49 | 9 | 4.0 | 5.0 | 0.12 | 0.73 | 0.73 | 95 | 1009.7 |
| 20260506032333 | 50 | 41 | 1.0 | 3.0 | 0.12 | 0.72 | 0.72 | 95 | 1009.7 |
| 20260506031830 | 50 | 352 | 3.0 | 4.0 | 0.07 | 0.71 | 0.71 | 95 | 1009.8 |
| 20260506031327 | 50 | 38 | 4.0 | 7.0 | 0.12 | 0.70 | 0.70 | 95 | 1010.1 |
| 20260506030825 | 50 | 335 | 5.0 | 5.0 | 0.19 | 0.69 | 0.69 | 95 | 1010.2 |
| 20260506030323 | 50 | 331 | 5.0 | 4.0 | 0.19 | 0.68 | 0.68 | 95 | 1010.5 |
| 20260506025819 | 50 | 333 | 6.0 | 8.0 | 0.12 | 0.66 | 0.66 | 95 | 1010.0 |
| 20260506025316 | 50 | 337 | 1.0 | 3.0 | 0.12 | 0.65 | 0.65 | 95 | 1010.0 |
| 20260506024813 | 50 | 18 | 2.0 | 3.0 | 0.24 | 0.64 | 0.64 | 95 | 1010.0 |
| 20260506024310 | 50 | 354 | 0.0 | 1.0 | 0.35 | 0.63 | 0.63 | 95 | 1009.7 |
| 20260506023806 | 51 | 16 | 4.0 | 5.0 | 0.31 | 0.60 | 0.60 | 95 | 1009.6 |
| 20260506023303 | 51 | 332 | 0.0 | 1.0 | 0.31 | 0.57 | 0.57 | 95 | 1009.6 |
| 20260506022759 | 51 | 14 | 6.0 | 8.0 | 0.31 | 0.55 | 0.55 | 95 | 1009.3 |
| 20260506022257 | 51 | 5 | 0.0 | 3.0 | 0.17 | 0.52 | 0.52 | 95 | 1009.4 |
| 20260506021755 | 51 | 28 | 3.0 | 4.0 | 0.12 | 0.50 | 0.50 | 95 | 1009.3 |
| 20260506021252 | 51 | 0 | 3.0 | 4.0 | 0.12 | 0.49 | 0.49 | 95 | 1009.3 |
| 20260506020749 | 51 | 13 | 3.0 | 7.0 | 0.12 | 0.48 | 0.48 | 95 | 1009.3 |
| 20260506020247 | 51 | 30 | 5.0 | 8.0 | 0.19 | 0.47 | 0.47 | 95 | 1009.3 |
| 20260506015744 | 51 | 16 | 3.0 | 4.0 | 0.24 | 0.46 | 0.46 | 95 | 1009.3 |
| 20260506015241 | 51 | 24 | 3.0 | 7.0 | 0.12 | 0.44 | 0.44 | 95 | 1009.3 |
| 20260506014738 | 51 | 8 | 0.0 | 1.0 | 0.07 | 0.42 | 0.42 | 94 | 1009.3 |
| 20260506014235 | 51 | 7 | 4.0 | 4.0 | 0.07 | 0.42 | 0.42 | 94 | 1009.3 |
| 20260506013732 | 51 | 2 | 6.0 | 8.0 | 0.00 | 0.41 | 0.41 | 94 | 1009.2 |
| 20260506013229 | 51 | 28 | 7.0 | 8.0 | 0.00 | 0.41 | 0.41 | 94 | 1009.2 |
| 20260506012725 | 51 | 23 | 4.0 | 8.0 | 0.00 | 0.41 | 0.41 | 95 | 1009.1 |
| 20260506012222 | 52 | 14 | 3.0 | 5.0 | 0.00 | 0.41 | 0.41 | 95 | 1009.2 |
| 20260506011720 | 52 | 23 | 2.0 | 4.0 | 0.00 | 0.41 | 0.41 | 95 | 1009.1 |
| 20260506011215 | 52 | 8 | 4.0 | 5.0 | 0.05 | 0.41 | 0.41 | 95 | 1009.1 |
| 20260506010714 | 52 | 5 | 4.0 | 4.0 | 0.12 | 0.41 | 0.41 | 95 | 1009.1 |
| 20260506010211 | 52 | 349 | 4.0 | 4.0 | 0.12 | 0.40 | 0.40 | 94 | 1009.1 |
| 20260506005708 | 52 | 2 | 2.0 | 3.0 | 0.05 | 0.39 | 0.39 | 94 | 1009.0 |
| 20260506005205 | 52 | 9 | 2.0 | 4.0 | 0.00 | 0.38 | 0.38 | 94 | 1008.7 |
| 20260506004701 | 52 | 20 | 3.0 | 4.0 | 0.00 | 0.38 | 0.38 | 94 | 1008.9 |
| 20260506004159 | 53 | 355 | 3.0 | 4.0 | 0.00 | 0.38 | 0.38 | 94 | 1009.0 |
| 20260506003654 | 53 | 19 | 1.0 | 4.0 | 0.07 | 0.38 | 0.38 | 94 | 1008.8 |
| 20260506003151 | 53 | 36 | 2.0 | 1.0 | 0.07 | 0.38 | 0.38 | 94 | 1008.8 |
| 20260506002647 | 53 | 36 | 2.0 | 3.0 | 0.05 | 0.37 | 0.37 | 94 | 1008.9 |
| 20260506002143 | 53 | 42 | 1.0 | 3.0 | 0.12 | 0.37 | 0.37 | 94 | 1008.9 |
| 20260506001639 | 53 | 48 | 1.0 | 3.0 | 0.12 | 0.36 | 0.36 | 94 | 1008.9 |
| 20260506001137 | 53 | 30 | 2.0 | 1.0 | 0.12 | 0.35 | 0.35 | 94 | 1008.9 |
| 20260506000634 | 53 | 30 | 3.0 | 3.0 | 0.19 | 0.34 | 0.34 | 94 | 1008.9 |
| 20260506000131 | 53 | 21 | 2.0 | 3.0 | 0.24 | 0.33 | 0.33 | 93 | 1009.0 |
| 20260505235629 | 53 | 23 | 1.0 | 1.0 | 0.24 | 0.31 | 0.31 | 93 | 1009.1 |
| 20260505235125 | 53 | 23 | 0.0 | 3.0 | 0.31 | 0.29 | 0.29 | 92 | 1009.1 |
| 20260505234617 | 53 | 335 | 3.0 | 7.0 | 0.78 | 0.26 | 0.26 | 92 | 1009.4 |
| 20260505234114 | 54 | 298 | 3.0 | 8.0 | 1.21 | 0.23 | 0.23 | 90 | 1009.4 |
| 20260505233612 | 56 | 293 | 5.0 | 10.0 | 0.78 | 0.13 | 0.13 | 88 | 1009.6 |
| 20260505233109 | 59 | 314 | 8.0 | 10.0 | 0.12 | 0.02 | 0.02 | 88 | 1009.0 |
| 20260505232606 | 59 | 336 | 1.0 | 1.0 | 0.00 | 0.00 | 0.00 | 86 | 1008.5 |
| 20260505232104 | 59 | 280 | 3.0 | 3.0 | 0.00 | 0.00 | 0.00 | 85 | 1008.2 |
| 20260505231600 | 59 | 1 | 2.0 | 4.0 | 0.00 | 0.00 | 0.00 | 84 | 1008.2 |
| 20260505231059 | 59 | 351 | 2.0 | 3.0 | 0.00 | 0.00 | 0.00 | 84 | 1008.3 |
| 20260505230556 | 59 | 341 | 1.0 | 3.0 | 0.00 | 0.00 | 0.00 | 83 | 1008.2 |
| 20260505230052 | 60 | 327 | 3.0 | 7.0 | 0.00 | 0.00 | 0.00 | 83 | 1008.3 |
| 20260505225549 | 60 | 328 | 1.0 | 3.0 | 0.00 | 0.00 | 0.00 | 84 | 1008.3 |
| 20260505225045 | 60 | 7 | 2.0 | 3.0 | 0.00 | 0.00 | 0.00 | 83 | 1008.3 |
| 20260505224543 | 60 | 336 | 1.0 | 5.0 | 0.00 | 0.00 | 0.00 | 83 | 1008.2 |
| 20260505224040 | 60 | 341 | 1.0 | 4.0 | 0.00 | 0.00 | 0.00 | 82 | 1008.4 |
| 20260505223537 | 60 | 0 | 1.0 | 4.0 | 0.00 | 0.00 | 0.00 | 82 | 1008.5 |
| 20260505223033 | 60 | 333 | 4.0 | 5.0 | 0.00 | 0.00 | 0.00 | 82 | 1008.4 |
| 20260505222529 | 60 | 338 | 3.0 | 7.0 | 0.00 | 0.00 | 0.00 | 82 | 1008.5 |
| 20260505222026 | 60 | 4 | 3.0 | 4.0 | 0.00 | 0.00 | 0.00 | 81 | 1008.8 |
| 20260505221523 | 61 | 307 | 2.0 | 3.0 | 0.00 | 0.00 | 0.00 | 81 | 1008.6 |
| 20260505221019 | 61 | 347 | 1.0 | 3.0 | 0.00 | 0.00 | 0.00 | 81 | 1008.7 |
| 20260505220517 | 61 | 320 | 1.0 | 3.0 | 0.00 | 0.00 | 0.00 | 81 | 1008.9 |
| 20260505220015 | 61 | 354 | 3.0 | 4.0 | 0.00 | 0.00 | 0.00 | 80 | 1008.8 |
| 20260505215512 | 62 | 288 | 4.0 | 7.0 | 0.00 | 0.00 | 0.00 | 79 | 1008.5 |
| 20260505215010 | 62 | 298 | 3.0 | 4.0 | 0.00 | 0.00 | 0.00 | 77 | 1008.6 |
| 20260505214508 | 63 | 354 | 7.0 | 12.0 | 0.00 | 0.00 | 0.00 | 74 | 1008.7 |
| 20260505214004 | 63 | 354 | 3.0 | 4.0 | 0.00 | 0.00 | 0.00 | 73 | 1008.5 |
| 20260505213502 | 63 | 277 | 4.0 | 10.0 | 0.00 | 0.00 | 0.00 | 72 | 1008.6 |
| 20260505212958 | 63 | 264 | 2.0 | 4.0 | 0.00 | 0.00 | 0.00 | 73 | 1008.4 |
| 20260505212455 | 63 | 274 | 1.0 | 3.0 | 0.00 | 0.00 | 0.00 | 73 | 1008.4 |
| 20260505211952 | 63 | 273 | 3.0 | 5.0 | 0.00 | 0.00 | 0.00 | 72 | 1008.4 |
| 20260505211449 | 63 | 268 | 1.0 | 1.0 | 0.00 | 0.00 | 0.00 | 73 | 1008.5 |
| 20260505210945 | 63 | 290 | 3.0 | 4.0 | 0.00 | 0.00 | 0.00 | 72 | 1008.4 |
| 20260505210443 | 64 | 301 | 1.0 | 4.0 | 0.00 | 0.00 | 0.00 | 72 | 1008.4 |
| 20260505205939 | 64 | 207 | 2.0 | 4.0 | 0.00 | 0.00 | 0.00 | 71 | 1008.3 |
| 20260505205438 | 64 | 228 | 2.0 | 4.0 | 0.00 | 0.00 | 0.00 | 71 | 1008.3 |
| 20260505204934 | 64 | 264 | 4.0 | 5.0 | 0.00 | 0.00 | 0.00 | 70 | 1008.6 |
| 20260505204432 | 64 | 194 | 8.0 | 10.0 | 0.00 | 0.00 | 0.00 | 68 | 1008.4 |
| 20260505203929 | 65 | 255 | 8.0 | 10.0 | 0.00 | 0.00 | 0.00 | 67 | 1008.6 |
| 20260505203425 | 66 | 241 | 5.0 | 7.0 | 0.00 | 0.00 | 0.00 | 64 | 1008.4 |
| 20260505202922 | 66 | 266 | 4.0 | 8.0 | 0.00 | 0.00 | 0.00 | 62 | 1008.3 |
| 20260505202418 | 66 | 300 | 2.0 | 7.0 | 0.00 | 0.00 | 0.00 | 62 | 1008.4 |
| 20260505201915 | 66 | 242 | 3.0 | 3.0 | 0.00 | 0.00 | 0.00 | 63 | 1008.2 |
| 20260505201412 | 66 | 215 | 2.0 | 1.0 | 0.00 | 0.00 | 0.00 | 62 | 1008.1 |
| 20260505200910 | 66 | 215 | 4.0 | 7.0 | 0.00 | 0.00 | 0.00 | 60 | 1008.2 |
| 20260505200407 | 66 | 224 | 3.0 | 5.0 | 0.00 | 0.00 | 0.00 | 61 | 1008.4 |
| 20260505195902 | 66 | 212 | 3.0 | 5.0 | 0.00 | 0.00 | 0.00 | 61 | 1008.4 |
| 20260505195400 | 66 | 251 | 3.0 | 5.0 | 0.00 | 0.00 | 0.00 | 61 | 1008.3 |
| 20260505194857 | 67 | 247 | 6.0 | 11.0 | 0.00 | 0.00 | 0.00 | 60 | 1008.3 |
| 20260505194355 | 67 | 280 | 2.0 | 3.0 | 0.00 | 0.00 | 0.00 | 61 | 1008.5 |
| 20260505193854 | 67 | 202 | 3.0 | 4.0 | 0.00 | 0.00 | 0.00 | 60 | 1008.4 |
| 20260505193353 | 67 | 280 | 1.0 | 4.0 | 0.00 | 0.00 | 0.00 | 60 | 1008.4 |
| 20260505192850 | 66 | 355 | 2.0 | 10.0 | 0.00 | 0.00 | 0.00 | 62 | 1008.6 |
| 20260505192348 | 66 | 251 | 2.0 | 4.0 | 0.00 | 0.00 | 0.00 | 61 | 1008.5 |
| 20260505191845 | 66 | 274 | 3.0 | 7.0 | 0.00 | 0.00 | 0.00 | 61 | 1008.8 |
| 20260505191344 | 66 | 313 | 6.0 | 8.0 | 0.00 | 0.00 | 0.00 | 61 | 1008.8 |
| 20260505190840 | 66 | 233 | 6.0 | 5.0 | 0.00 | 0.00 | 0.00 | 60 | 1008.9 |
| 20260505190336 | 66 | 264 | 6.0 | 7.0 | 0.00 | 0.00 | 0.00 | 60 | 1008.9 |
| 20260505185831 | 66 | 293 | 7.0 | 8.0 | 0.00 | 0.00 | 0.00 | 60 | 1009.1 |
| 20260505185328 | 65 | 297 | 3.0 | 8.0 | 0.00 | 0.00 | 0.00 | 61 | 1009.1 |
| 20260505184824 | 65 | 273 | 4.0 | 10.0 | 0.00 | 0.00 | 0.00 | 62 | 1009.3 |
| 20260505184322 | 65 | 299 | 2.0 | 4.0 | 0.00 | 0.00 | 0.00 | 63 | 1009.4 |
| 20260505183819 | 65 | 255 | 3.0 | 4.0 | 0.00 | 0.00 | 0.00 | 61 | 1009.3 |
| 20260505183315 | 65 | 306 | 3.0 | 5.0 | 0.00 | 0.00 | 0.00 | 61 | 1009.2 |
| 20260505182812 | 65 | 297 | 3.0 | 8.0 | 0.00 | 0.00 | 0.00 | 61 | 1009.3 |
| 20260505182309 | 66 | 332 | 2.0 | 5.0 | 0.00 | 0.00 | 0.00 | 60 | 1008.9 |
| 20260505181806 | 66 | 266 | 3.0 | 4.0 | 0.00 | 0.00 | 0.00 | 60 | 1009.0 |
| 20260505181303 | 66 | 242 | 4.0 | 7.0 | 0.00 | 0.00 | 0.00 | 61 | 1008.9 |
| 20260505180759 | 66 | 313 | 3.0 | 5.0 | 0.00 | 0.00 | 0.00 | 59 | 1008.9 |
| 20260505180256 | 66 | 257 | 2.0 | 4.0 | 0.00 | 0.00 | 0.00 | 59 | 1008.7 |
| 20260505175752 | 67 | 284 | 3.0 | 7.0 | 0.00 | 0.00 | 0.00 | 58 | 1008.7 |
| 20260505175249 | 67 | 263 | 4.0 | 10.0 | 0.00 | 0.00 | 0.00 | 59 | 1008.8 |
| 20260505174745 | 67 | 324 | 7.0 | 8.0 | 0.00 | 0.00 | 0.00 | 58 | 1008.6 |
| 20260505174243 | 67 | 235 | 2.0 | 5.0 | 0.00 | 0.00 | 0.00 | 58 | 1008.6 |
| 20260505173739 | 67 | 261 | 4.0 | 7.0 | 0.00 | 0.00 | 0.00 | 59 | 1008.5 |
| 20260505173236 | 67 | 240 | 2.0 | 5.0 | 0.00 | 0.00 | 0.00 | 58 | 1008.4 |
| 20260505172732 | 67 | 263 | 7.0 | 10.0 | 0.00 | 0.00 | 0.00 | 57 | 1008.6 |
| 20260505172229 | 67 | 276 | 7.0 | 10.0 | 0.00 | 0.00 | 0.00 | 57 | 1008.3 |
| 20260505171729 | 67 | 242 | 4.0 | 15.0 | 0.00 | 0.00 | 0.00 | 57 | 1008.4 |
| 20260505171227 | 67 | 227 | 3.0 | 10.0 | 0.00 | 0.00 | 0.00 | 57 | 1008.7 |
| 20260505170723 | 68 | 254 | 10.0 | 12.0 | 0.00 | 0.00 | 0.00 | 56 | 1008.7 |
| 20260505170220 | 68 | 206 | 3.0 | 5.0 | 0.00 | 0.00 | 0.00 | 56 | 1008.7 |
| 20260505165716 | 68 | 264 | 3.0 | 14.0 | 0.00 | 0.00 | 0.00 | 55 | 1008.6 |